This is the latest recevied weather packets stored in our database for station/object DC4AT. If no packets are shown the sender has not sent any weather packets the latest 10 day(s).
| Time | Temp. | Humidity | Pressure | Rain* | Wind** | Luminosity | Snow |
|---|---|---|---|---|---|---|---|
| 1777878817 | 14.44° C | 75% | 1013.9 hPa | 0 mm | - | 156 W/m² | - |
| 1777878217 | 14.44° C | 75% | 1013.7 hPa | 0 mm | - | 153 W/m² | - |
| 1777877617 | 14.44° C | 75% | 1013.6 hPa | 0 mm | - | 160 W/m² | - |
| 1777877017 | 13.89° C | 75% | 1013.4 hPa | 0 mm | - | 142 W/m² | - |
| 1777876417 | 13.89° C | 75% | 1013.5 hPa | 0 mm | - | 111 W/m² | - |
| 1777875817 | 13.89° C | 76% | 1013.3 hPa | 0 mm | - | 76 W/m² | - |
| 1777875217 | 13.89° C | 77% | 1013.2 hPa | 0 mm | - | 69 W/m² | - |
| 1777874617 | 13.89° C | 76% | 1013.3 hPa | 0 mm | - | 74 W/m² | - |
| 1777874017 | 13.33° C | 75% | 1013.2 hPa | 0 mm | - | 51 W/m² | - |
| 1777873417 | 13.33° C | 76% | 1013.2 hPa | 0 mm | - | 91 W/m² | - |
| 1777872817 | 12.78° C | 78% | 1013.2 hPa | 0 mm | - | 70 W/m² | - |
| 1777872217 | 12.78° C | 80% | 1013.2 hPa | 0 mm | - | 69 W/m² | - |
| 1777871617 | 12.22° C | 82% | 1013 hPa | 0 mm | - | 47 W/m² | - |
| 1777871017 | 12.22° C | 81% | 1012.8 hPa | 0 mm | - | 33 W/m² | - |
| 1777870417 | 12.22° C | 80% | 1012.6 hPa | 0 mm | - | 40 W/m² | - |
| 1777869817 | 11.67° C | 80% | 1012.6 hPa | 0 mm | - | 39 W/m² | - |
| 1777869217 | 11.67° C | 80% | 1012.6 hPa | 0 mm | - | 11 W/m² | - |
| 1777868617 | 11.67° C | 79% | 1012.7 hPa | 0 mm | - | 7 W/m² | - |
| 1777868018 | 12.22° C | 79% | 1012.6 hPa | 0 mm | - | 7 W/m² | - |
| 1777867418 | 12.22° C | 79% | 1012.6 hPa | 0 mm | - | 5 W/m² | - |
| 1777866818 | 12.22° C | 79% | 1012.5 hPa | 0 mm | - | 0 W/m² | - |
| 1777866218 | 11.67° C | 80% | 1012.5 hPa | 0 mm | - | 0 W/m² | - |
| 1777865618 | 11.67° C | 79% | 1012.5 hPa | 0 mm | - | 0 W/m² | - |
| 1777865018 | 11.67° C | 78% | 1012.6 hPa | 0 mm | - | 0 W/m² | - |
| 1777864418 | 12.22° C | 77% | 1012.5 hPa | 0 mm | - | 0 W/m² | - |
* Rain latest hour (hover to see other rain measurements)
** Current wind speed in m/s (hover to see current wind gust speed)